Lapse_Rate
6.2 6.5 6.8 6.7 6.2 6.4 6.5 6.2 5.5 5.2 4.9 5.1 4.3 3.6 3.3 2.4 2.0 2.9 4.2 4.3 4.3 4.2 3.8 4.2 4.4 4.9 6.6 4.3 4.6 6.1 5.9 4.1 4.3 2.1 1.7 1.3 2.1 2.3 2.0 1.8 2.2 2.2 2.5
6.3 6.6 6.7 7.0 6.1 5.8 5.7 5.3 4.9 3.8 3.2 2.2 1.1 0.8 2.1 2.5 2.3 2.9 2.4 4.2 4.0 3.7 3.4 4.9 5.6 6.3 6.2 5.5 4.0 5.1 6.0 5.1 4.5 4.0 1.4 1.3 1.9 2.5 2.7 2.7 1.4 2.4 3.1
5.3 5.5 6.1 6.7 6.4 5.8 5.5 5.0 4.4 3.6 2.7 1.7 0.8 0.5 0.4 0.5 2.0 2.3 2.4 2.3 3.9 3.2 2.5 3.4 3.9 2.8 4.9 6.2 6.0 5.8 5.2 5.6 4.2 2.8 2.4 2.0 2.1 1.6 2.5 2.3 1.8 1.9 3.2
4.4 4.5 5.1 5.7 6.4 5.7 5.5 4.4 3.7 3.7 3.2 2.5 1.9 1.3 0.2 -0.3 -0.3 -0.5 -0.7 -0.3 -0.7 -1.5 -1.3 -2.2 -1.4 0.0 2.6 6.1 5.9 5.1 4.3 4.2 4.4 4.4 2.5 2.1 2.2 1.8 2.6 3.0 3.4 3.1 3.5
3.1 3.0 3.5 4.3 5.0 5.0 4.7 3.7 2.6 2.0 2.3 3.3 3.5 2.8 1.6 -1.0 -0.6 -0.8 -1.6 -2.0 -2.0 -2.2 -2.4 -2.5 -3.1 -2.0 -3.7 -4.0 2.3 0.5 3.1 4.3 4.6 4.0 2.9 2.7 2.6 2.8 3.7 2.9 4.3 3.5 3.4
2.0 2.4 2.0 1.8 2.4 2.9 3.4 2.1 1.8 2.0 1.5 1.2 2.2 3.5 2.8 2.2 2.0 0.7 0.6 0.2 -0.7 -0.4 -1.1 -0.9 -1.0 -2.2 -2.6 -4.1 -5.5 -5.4 -5.1 -0.9 1.5 2.3 2.7 2.9 1.1 -0.9 -1.8 -0.7 0.1 2.5 4.3
1.7 1.7 0.8 0.8 0.5 1.6 1.2 1.5 1.4 0.6 0.4 1.3 1.2 2.1 3.7 3.1 1.3 1.1 1.2 0.6 0.7 0.6 0.9 0.7 0.3 0.3 -0.6 -0.2 -1.4 -1.3 -3.4 -4.7 -5.4 -2.6 -2.2 -3.9 -3.2 -4.8 -3.9 -2.1 -1.1 -0.0 1.6
2.2 1.5 1.0 0.1 -0.2 -0.1 0.3 -0.1 0.2 0.3 0.1 0.1 1.3 1.6 2.8 3.1 2.4 1.9 1.1 0.5 0.9 1.5 1.5 0.6 0.7 0.8 0.2 -0.9 -1.6 -1.6 -2.1 -0.6 -2.5 -1.5 -4.0 -4.7 -4.8 -4.8 -4.3 -3.3 -2.5 -2.2 -2.3
2.7 2.1 1.7 0.5 -0.1 -0.4 -0.9 -0.2 -0.0 -0.3 -0.7 -0.5 0.2 1.5 1.5 3.4 3.4 2.8 1.6 2.1 3.2 2.0 1.7 1.1 0.6 0.9 1.3 0.5 -1.3 -0.4 -1.1 -1.2 -1.2 -0.5 -0.4 -0.6 -1.3 -3.1 -2.5 -1.9 -2.4 -0.9 0.3
3.9 3.6 2.7 2.1 0.8 0.5 0.1 -0.2 0.1 0.5 0.3 0.2 0.2 0.9 2.8 2.5 4.1 3.8 2.7 2.7 2.3 2.7 2.6 2.6 2.4 1.7 1.5 0.9 -0.3 0.5 -0.9 -1.0 -1.4 -1.0 0.5 -0.9 0.0 -1.4 -1.5 -2.5 -2.2 -1.0 -0.3
2.1 3.0 2.4 2.1 1.9 1.3 1.3 0.8 0.6 0.7 0.9 1.1 1.3 1.6 1.8 5.1 4.9 4.7 4.4 2.7 3.1 3.6 2.9 2.6 3.4 3.3 2.5 1.3 0.7 1.0 2.3 2.1 1.5 1.2 0.6 -0.3 -0.2 0.2 -0.4 -0.9 -1.4 -1.1 -1.3
-0.4 -0.9 0.3 0.7 1.3 1.0 1.3 1.6 1.3 1.2 1.4 1.9 2.3 3.0 3.7 4.5 6.6 6.3 5.5 4.8 3.9 2.6 3.6 3.9 3.8 3.4 2.5 2.0 1.4 2.6 2.2 1.9 1.9 2.1 2.2 1.8 1.0 1.7 1.2 0.9 0.7 0.3 -0.5
1.4 0.1 -2.2 -0.5 0.5 -0.1 0.6 1.6 1.8 2.0 2.5 3.4 3.9 3.9 4.1 4.7 4.6 4.7 4.9 5.0 4.3 3.0 3.5 4.0 3.5 2.8 2.9 2.3 3.4 2.7 1.4 1.3 2.0 2.1 2.9 3.7 3.6 3.1 2.2 1.8 1.9 1.0 1.7
1.8 2.0 2.8 2.0 2.0 1.2 2.6 4.4 3.9 3.9 4.2 5.6 5.9 6.5 5.7 5.5 6.6 6.2 4.2 3.1 2.9 2.4 2.1 1.9 2.2 2.6 1.7 1.8 1.6 2.1 2.5 3.1 3.6 3.8 3.9 4.1 3.9 3.2 2.9 2.8 1.7 1.5 1.4
3.5 4.1 4.1 5.0 4.4 4.8 5.7 6.9 7.1 8.3 7.8 7.1 7.2 6.8 7.1 6.8 8.1 8.8 7.0 4.9 3.9 3.4 1.5 0.6 0.0 0.5 0.7 1.4 1.9 2.6 2.6 2.8 3.1 3.9 3.8 3.9 4.3 4.2 3.8 3.7 3.4 2.7 1.9
4.2 4.3 4.0 4.4 4.6 5.5 5.0 5.2 7.9 9.2 9.4 8.9 9.4 8.6 7.3 9.2 9.5 6.9 6.3 5.8 4.5 3.7 0.9 0.7 1.4 2.1 2.6 3.2 3.2 3.4 3.7 3.4 3.7 4.5 4.2 4.6 4.6 5.3 5.3 4.7 4.3 3.8 3.1
4.2 6.1 5.7 5.6 5.1 4.8 4.8 4.9 3.8 4.4 7.2 8.1 8.3 9.5 9.5 9.6 9.5 9.4 6.6 5.3 4.8 2.7 2.0 3.1 3.0 3.0 3.6 3.8 3.7 3.9 3.7 3.6 3.7 3.4 3.6 3.8 4.4 5.1 5.4 5.6 4.9 4.6 4.2
3.8 2.8 3.3 3.1 2.4 2.4 0.9 2.6 1.9 3.1 3.1 2.4 5.4 7.7 9.2 9.3 9.4 8.4 6.8 4.5 3.0 3.7 4.0 4.3 4.0 3.6 3.7 3.9 3.6 3.5 3.5 3.0 2.7 2.9 2.9 2.8 3.1 4.7 5.4 5.5 5.3 2.8 4.4
4.1 1.4 0.8 0.4 0.4 1.0 1.3 2.4 2.5 2.5 1.4 1.3 2.0 3.7 4.6 8.0 7.5 7.0 6.3 2.6 3.9 4.7 5.3 5.2 4.7 4.4 4.3 4.2 3.4 2.0 1.0 1.1 0.9 1.0 2.2 2.9 2.8 4.2 5.2 5.4 4.5 3.5 4.2
1.1 2.5 1.3 1.5 1.7 1.8 1.8 3.1 3.6 3.5 3.3 3.0 3.3 1.7 3.5 4.4 0.8 -0.2 -1.4 -2.2 0.4 2.7 2.8 4.7 4.9 3.6 1.8 2.7 0.9 -2.6 0.2 -0.3 0.1 0.6 1.0 2.0 2.1 3.6 4.7 5.4 5.2 4.1 4.6
0.4 2.9 2.7 3.4 4.2 4.2 4.1 4.5 4.7 4.3 4.4 4.8 3.3 0.7 2.4 3.5 2.7 2.2 2.3 0.2 0.7 2.0 0.7 2.0 1.4 0.5 0.1 0.6 2.8 -0.5 -0.7 -2.1 -0.3 0.5 0.6 2.0 2.2 2.7 4.9 5.2 4.4 4.9 5.0
2.6 4.2 5.2 4.7 5.4 3.9 4.6 5.4 4.1 4.4 5.3 5.2 4.1 4.3 3.6 2.5 5.2 4.2 3.7 1.0 0.4 1.7 4.0 2.0 1.4 2.5 2.3 2.8 1.8 -2.8 -1.7 -3.0 -2.4 -0.5 0.1 1.4 2.8 3.5 4.6 5.1 3.7 1.9 3.8
3.0 2.9 4.5 4.8 4.8 3.7 3.0 3.7 2.9 2.9 2.7 2.9 4.6 5.5 5.7 4.9 4.4 4.3 4.1 5.3 4.9 3.3 5.5 5.2 2.7 2.9 5.5 5.5 5.3 4.0 0.2 0.2 0.7 -0.4 -1.6 1.6 3.7 4.4 4.7 4.4 5.1 2.9 1.3
2.8 1.8 4.3 2.6 1.8 2.0 0.7 -0.5 0.5 2.9 3.2 2.8 2.6 4.0 5.2 5.4 3.4 3.4 4.3 4.7 4.9 5.2 4.4 4.6 5.0 5.2 6.0 5.9 5.7 5.4 5.2 4.9 4.3 3.6 2.1 1.3 3.7 4.0 4.1 4.2 4.0 3.3 0.5
0.3 0.3 0.5 -0.1 -0.8 -1.7 -1.5 -0.5 -0.3 -0.6 0.6 1.2 2.3 3.0 4.7 5.1 3.9 1.7 2.3 3.8 4.6 4.6 4.7 5.7 5.1 5.8 6.8 6.3 5.7 5.7 5.9 5.5 5.1 4.7 4.2 2.9 0.1 0.5 2.5 4.1 3.2 5.3 0.6
1.1 1.8 0.9 0.7 -0.9 -1.9 -2.6 -2.8 -2.8 -2.0 0.7 2.5 1.4 1.1 1.3 4.7 5.2 -0.6 2.7 4.1 3.9 4.0 4.6 5.1 4.9 4.6 5.5 6.5 6.8 6.2 5.9 5.6 5.4 5.1 4.9 3.5 -0.8 0.2 0.4 2.8 4.0 4.0 3.6
Wind_Speed
17 16 15 14 13 12 11 11 12 11 12 15 13 14 15 14 12 13 13 12 10 11 14 15 17 20 15 11 10 11 9 5 10 4 3 4 7 9 6 12 10 11 13
16 16 16 13 14 13 13 13 13 13 13 14 14 14 12 10 7 5 6 9 10 9 9 16 18 12 16 14 12 19 12 9 9 12 4 4 5 10 10 10 8 11 13
17 16 16 14 15 15 15 15 15 15 16 16 16 15 13 12 9 9 8 5 4 4 4 5 11 11 15 12 14 13 11 9 10 5 5 3 3 3 3 5 5 8 10
16 16 17 17 14 16 15 16 17 17 18 18 17 15 15 14 13 14 14 16 16 14 14 15 14 11 10 18 17 16 13 11 9 9 4 3 3 2 3 3 4 5 7
14 16 17 16 15 15 17 18 18 19 17 17 18 18 17 19 15 15 17 17 16 15 15 14 15 17 25 23 2 1 9 10 7 6 3 2 2 2 2 1 2 1 5
14 15 15 16 17 17 15 18 18 17 18 19 20 20 21 15 29 31 21 17 18 17 14 14 14 18 17 25 26 28 18 2 4 4 3 2 3 3 3 2 2 2 2
13 14 15 16 17 17 17 16 17 18 18 18 20 20 21 20 30 30 27 17 17 16 14 14 14 12 14 11 20 22 23 26 22 4 7 5 4 6 4 2 2 2 2
14 14 15 14 15 15 16 18 17 16 17 17 18 19 19 20 29 26 23 18 17 17 17 17 16 15 18 15 15 12 17 14 19 10 11 8 7 6 5 3 4 4 4
15 15 15 14 14 15 16 15 13 13 14 16 15 18 20 21 33 30 21 13 12 17 17 22 18 17 24 24 17 14 13 11 15 19 21 17 16 17 10 1 4 2 2
11 12 12 13 14 14 13 12 11 10 12 12 15 17 25 19 32 31 22 11 14 11 15 17 32 24 30 28 16 11 13 12 12 11 8 13 9 10 15 8 4 2 2
6 9 11 11 12 12 11 11 10 11 12 13 14 15 17 21 22 32 31 13 11 11 12 12 12 28 30 31 27 14 14 8 9 7 8 8 9 8 6 5 4 2 2
5 6 8 8 8 8 11 11 11 11 12 13 13 13 12 13 28 28 29 27 22 12 12 11 13 27 29 31 20 25 23 12 8 8 8 8 8 8 8 6 6 3 2
6 6 3 6 7 7 9 11 10 12 11 11 11 11 12 12 12 27 28 27 25 13 11 18 24 26 25 18 26 24 16 10 9 8 8 7 7 6 7 6 6 9 4
10 10 8 7 7 5 5 8 10 11 10 10 10 9 10 11 11 10 10 11 16 13 13 12 13 15 15 13 13 14 11 10 9 8 7 7 7 7 7 7 4 7 3
7 7 7 7 7 8 7 6 8 11 14 8 8 9 9 11 13 19 17 10 10 11 9 9 10 10 11 11 11 11 10 10 10 9 9 9 8 7 7 6 6 4 3
8 7 6 6 6 6 5 7 20 23 24 26 24 16 8 21 24 25 24 25 24 19 10 10 10 10 11 10 10 10 10 12 10 9 9 8 8 7 7 6 5 4 5
6 7 5 5 6 6 5 5 4 6 19 23 24 24 24 21 24 24 23 22 25 16 9 9 9 9 8 8 8 8 9 8 10 9 8 8 8 8 8 6 5 5 5
4 4 3 3 3 3 3 3 2 4 4 4 10 15 20 21 21 21 20 14 9 12 8 8 8 8 8 8 8 8 8 8 8 8 8 8 8 8 8 7 7 3 3
3 2 2 2 2 2 2 3 3 3 3 2 3 4 7 15 16 16 14 5 5 5 6 5 4 5 6 6 5 5 5 7 7 6 7 7 8 8 8 7 7 8 6
4 5 3 3 3 3 3 3 3 4 3 3 3 2 4 4 3 3 3 2 2 2 2 2 2 3 2 3 3 3 4 6 7 6 7 7 8 8 8 8 6 6 6
2 3 4 3 3 3 3 4 4 4 3 4 3 2 4 2 3 3 2 2 1 2 1 1 1 1 2 2 2 3 3 3 4 5 6 6 6 7 8 7 7 6 5
2 2 2 2 3 4 4 4 4 4 5 5 3 4 8 3 4 4 4 3 3 4 5 3 2 3 2 2 2 1 2 3 4 5 6 6 6 7 7 7 6 4 5
3 3 3 3 3 4 4 4 4 4 3 4 4 6 6 6 6 6 6 7 7 10 9 7 5 6 7 7 7 4 2 2 5 6 4 5 6 7 6 6 6 4 3
3 3 3 3 3 3 4 3 3 5 4 4 4 4 4 5 5 6 7 10 12 16 16 12 9 10 10 10 9 7 7 8 10 10 9 4 5 6 6 6 6 5 3
4 3 3 2 3 2 3 3 3 4 3 3 4 4 5 4 3 4 7 11 12 13 15 16 16 15 12 13 11 9 8 8 9 12 12 10 3 6 5 5 5 6 3
4 3 3 2 3 3 3 3 3 3 3 4 5 4 4 5 5 3 8 11 11 13 16 15 16 22 20 15 10 9 8 9 9 11 13 11 3 4 4 4 7 4 4
Wind_Direction
347 342 342 342 345 347 353 346 346 341 332 337 261 255 263 266 263 259 254 261 222 194 196 198 209 215 224 224 232 242 232 204 233 241 184 175 182 195 200 206 199 208 224
348 343 347 348 1 7 5 4 6 13 8 10 18 27 18 356 342 326 307 276 237 201 198 203 213 219 229 226 218 237 230 222 227 227 178 182 180 196 199 206 185 210 223
351 351 356 359 12 13 13 14 17 21 23 22 25 28 19 10 0 24 2 329 331 324 270 229 206 188 236 222 219 217 219 224 226 224 190 171 170 156 175 227 191 198 222
355 358 0 2 11 22 18 23 25 25 27 27 27 28 31 31 28 40 44 51 53 50 43 42 29 10 289 224 214 207 207 205 213 220 216 180 151 189 145 181 206 202 223
360 4 1 2 10 20 27 26 28 28 28 27 30 31 34 39 32 40 52 56 51 49 47 42 40 45 43 26 280 86 197 200 198 186 191 151 142 137 146 322 232 232 221
8 12 6 9 12 20 22 29 29 27 31 28 30 31 31 35 39 44 48 54 60 46 43 40 35 30 47 42 40 32 31 85 147 133 156 144 72 52 46 28 14 23 244
15 14 15 14 16 18 25 29 31 30 27 29 29 29 31 30 31 39 44 52 50 54 42 46 41 30 38 54 52 37 30 27 36 26 96 45 73 30 354 345 74 357 279
21 20 21 19 20 17 25 30 28 30 30 29 29 30 31 28 32 32 37 46 47 54 47 50 51 36 36 43 53 59 42 23 34 25 63 64 63 53 23 332 354 310 292
23 20 22 26 26 22 23 23 25 24 30 33 30 30 32 32 32 32 36 41 39 46 46 45 42 47 40 45 57 54 61 31 26 44 46 52 46 49 31 44 47 329 317
15 21 25 28 30 31 26 21 20 27 32 32 33 29 30 29 35 36 37 35 38 36 41 40 43 41 39 42 50 40 44 25 33 38 15 45 27 32 35 46 26 28 313
0 26 32 28 34 30 32 32 27 31 34 34 34 29 28 33 31 37 39 34 36 41 43 37 39 41 41 41 41 38 28 18 31 27 22 30 23 9 9 14 27 357 352
5 28 22 17 26 22 35 36 37 35 37 37 36 35 29 26 36 36 38 39 37 39 36 37 35 38 40 40 39 35 32 25 27 30 22 24 29 359 357 348 349 348 334
23 23 16 17 23 14 30 36 38 36 35 36 35 32 28 24 30 31 31 35 35 40 38 39 38 37 37 33 34 31 24 26 26 24 16 13 10 352 354 348 339 340 298
33 24 20 16 22 12 29 41 41 38 35 34 31 35 33 28 26 27 26 28 27 31 29 30 27 33 37 31 27 25 21 20 20 14 10 4 6 7 4 355 343 349 344
36 22 20 20 20 31 33 53 50 46 41 31 36 29 38 37 29 31 32 33 37 36 33 34 31 27 26 25 22 21 17 15 15 8 6 3 4 6 359 357 355 348 357
48 35 24 25 24 30 28 34 39 51 46 41 38 51 29 46 36 31 34 36 37 36 42 37 32 27 25 19 16 12 14 11 5 2 3 1 359 353 352 354 357 352 351
49 51 35 33 41 44 39 40 32 15 43 42 40 39 39 39 37 36 37 36 38 38 40 35 32 23 19 19 15 11 8 5 359 3 359 352 351 349 350 348 342 350 345
58 39 39 14 31 31 23 24 24 38 28 359 18 38 38 39 39 39 41 41 39 40 39 34 27 19 13 13 13 9 7 2 3 354 352 348 346 345 346 349 349 322 332
43 38 42 27 13 35 20 24 30 26 15 348 335 350 1 36 43 44 52 53 44 38 36 33 29 20 13 8 12 359 356 354 348 349 349 347 343 339 341 342 344 342 338
34 46 57 28 10 8 14 20 14 17 11 357 352 318 332 17 12 352 10 46 45 33 14 20 5 4 347 340 347 341 357 0 359 352 343 341 342 335 342 342 343 346 343
36 36 31 29 9 7 13 15 6 10 3 354 323 307 333 41 335 344 329 328 352 353 315 313 296 317 322 326 342 2 11 346 347 345 339 334 332 331 335 337 333 337 342
50 31 22 20 9 25 15 28 20 16 11 6 336 328 350 13 347 336 327 305 293 281 280 256 274 261 277 302 298 329 345 339 335 340 335 327 329 329 331 330 334 332 339
57 43 30 35 34 35 25 20 17 13 2 0 2 10 9 8 5 359 352 359 335 307 291 258 257 264 276 284 289 282 297 306 311 323 322 327 334 334 334 327 328 326 343
74 64 46 53 37 37 37 21 4 18 14 12 9 358 360 359 8 10 6 355 351 350 326 290 276 258 264 270 279 268 295 330 332 331 334 305 323 331 326 331 328 322 311
76 76 74 69 62 64 32 20 11 13 18 23 7 357 355 347 24 353 342 347 348 348 346 355 338 293 262 272 279 259 283 314 331 346 345 345 318 330 324 324 323 329 322
80 76 71 62 49 38 44 31 10 20 25 19 6 347 339 344 355 358 349 351 350 344 344 344 342 349 324 278 257 242 277 298 313 336 348 340 353 336 326 326 338 337 325